Home   Weather   Baton Rouge   Past weeks

Flag for USA Past Weather in Baton Rouge, Louisiana, USA — Yesterday and Last 2 Weeks

Now
69 °F

Passing clouds.


Feels Like: 69 °F
Forecast: 73 / 80 °F
Wind: 10 mph from Northeast

Location: Baton Rouge Metropolitan - Ryan Field

Current Time: May 29, 2017 at 2:45:40 am

Latest Report: May 29, 2017 at 1:53 am


Visibility: 10 mi

Pressure: 30.02 "Hg

Humidity: 84%

Dew Point: 64 °F

Location of Baton RougeLocation

Past Weather in Baton Rouge — Graph

°F

Baton Rouge Temperature Yesterday

Maximum temperature yesterday: 86 °F (at 11:53 am)
Minimum temperature yesterday: 76 °F (at 12:28 pm)
Average temperature yesterday: 80 °F

High & Low Weather Summary for the Past Weeks

 TemperatureHumidityPressure
High90 °F (May 19, 1:53 pm)100% (May 16, 6:53 am)30.09 "Hg (May 16, 6:53 am)
Low55 °F (May 25, 4:53 am)36% (May 24, 1:53 pm)29.69 "Hg (May 24, 5:53 pm)
Average75 °F78%29.92 "Hg
* Reported May 14 12:53 am — May 29 12:53 am, Baton Rouge. Weather by CustomWeather, © 2017

Note: Actual official high and low records may vary slightly from our data, if they occured in-between our weather recording intervals... More about our weather records

Advertising

Baton Rouge Weather History for the Previous 24 Hours

Scroll right to see more
 ConditionsComfort  
Time TempWeatherWind HumidityBarometerVisibility
12:53 am
Mon, May 29
70 °FMostly cloudy.10 mph84%30.05 "Hg10 mi
12:02 am75 °FMostly cloudy.16 mph74%30.06 "Hg10 mi
10:53 pm
Sun, May 28
79 °FClear.8 mph79%30.00 "Hg10 mi
9:53 pm78 °FClear.3 mph82%29.98 "Hg10 mi
8:53 pm79 °FClear.5 mph79%29.96 "Hg10 mi
6:53 pm83 °FSunny.10 mph74%29.87 "Hg10 mi
5:53 pm83 °FSunny.6 mph70%29.91 "Hg10 mi
4:53 pm84 °FSunny.3 mph65%29.94 "Hg10 mi
3:53 pm84 °FSunny.8 mph67%29.95 "Hg10 mi
2:53 pm80 °FSunny.12 mph74%29.98 "Hg10 mi
1:53 pm76 °FScattered clouds.10 mph82%30.00 "Hg10 mi
12:53 pm77 °FScattered clouds.16 mph77%30.03 "Hg10 mi
12:43 pm78 °FThundershowers. Passing clouds.14 mph76%30.05 "Hg10 mi
12:28 pm76 °FThunderstorms. Broken clouds.12 mph77%30.05 "Hg10 mi
11:53 am86 °FBroken clouds.N/A65%30.03 "Hg10 mi
10:53 am85 °FBroken clouds.6 mph72%30.03 "Hg10 mi
9:53 am83 °FScattered clouds.8 mph79%30.02 "Hg9 mi
8:53 am79 °FMostly cloudy.No wind88%30.05 "Hg8 mi
7:53 am79 °FMore clouds than sun.3 mph88%30.02 "Hg8 mi
7:33 am79 °FCloudy.5 mph88%30.02 "Hg8 mi
6:53 am79 °FCloudy.3 mph84%29.99 "Hg8 mi
5:53 am78 °FMostly cloudy.8 mph87%29.95 "Hg9 mi
5:27 am79 °FOvercast.9 mph84%29.94 "Hg10 mi
4:53 am79 °FMostly cloudy.9 mph84%29.91 "Hg10 mi
3:53 am79 °FMostly cloudy.9 mph84%29.89 "Hg10 mi
2:53 am79 °FOvercast.14 mph84%29.90 "Hg10 mi
Weather by CustomWeather, © 2017

See weather overviewHow to use our weather pages